EHI
0 0 0 0 0 0 0 0 0 0 0 0 0 0 0 0 0 0 0 0 0 0 0 0 0 0 0 0 0 0 0 0 0 0 0 0 0 0 0 0 0 0 0 0
0 0 0 0 0 0 0 0 0 0 0 0 0 0 0 0 0 0 0 0 0 0 0 0 0 0 0 0 0 0 0 0 0 0 0 0 0 0 0 0 0 0 0 0
0 0 0 0 0 0 0 0 0 0 0 0 0 0 0 0 0 0 0 0 0 0 0 0 0 0 0 0 0 0 0 0 0 0 0 0 0 0 0 0 0 0 0 0
0 0 0 0 0 0 0 0 0 0 0 0 0 0 0 0 0 0 0 0 0 0 0 0 0 0 0 0 0 0 0 0 0 0 0 0 0 0 0 0 0 0 0 0
0 0 0 0 0 0 0 0 0 0 0 0 0 0 0 0 0 0 0 0 0 0 0 0 0 0 0 0 0 0 0 0 0 0 0 0 0 0 0 0 0 0 0 0
0 0 0 0 0 0 0 0 0 0 0 0 0 0 0 0 0 0 0 0 0 0 0 0 0 0 0 0 0 0 0 0 0 0 0 0 0 0 0 0 0 0 0 0
0 0 0 0 0 0 0 0 0 0 0 0 0 0 0 0 0 0 0 0 0 0 0 0 0 0 0 0 0 0 0 0 0 0 0 0 0 0 0 0 0 0 0 0
0 0 0 0 0 0 0 0 0 0 0 0 0 0 0 0 0 0 0 0 0 0 0 0 0 0 0 0 0 0 0 0 0 0 0 0 0 0 0 0 0 0 0 0
0 0 0 0 0 0 0 0 0 0 0 0 0 0 0 0 0 0 0 0 0 0 0 0 0 0 0 0 0 0 0 0 0 0 0 0 0 0 0 0 0 0 0 0
0 0 0 0 0 0 0 0 0 0 0 0 0 0 0 0 0 0 0 0 0 0 0 0 0 0 0 0 0 0 0 0 0 0 0 0 0 0 0 0 0 0 0 0
0 0 0 0 0 0 0 0 0 0 0 0 0 0 0 0 0 0 0 0 0 0 0 0 0 0 0 0 0 0 0 0 0 0 0 0 0 0 0 0 0 0 0 0
0 0 0 0 0 0 0 0 0 0 0 0 0 0 0 0 0 0 0 0 0 0 0 0 0 0 0 0 0 0 0 0 0 0 0 0 0 0 0 0 0 0 0 0
0 0 0 0 0 0 0 0 0 0 0 0 0 0 0 0 0 0 0 0 0 0 0 0 0 0 0 0 0 0 0 0 0 0 0 0 0 0 0 0 0 0 0 0
0 0 0 0 0 0 0 0 0 0 0 0 0 0 0 0 0 0 0 0 0 0 0 0 0 0 0 0 0 0 0 0 0 0 0 0 0 0 0 0 0 0 0 0
0 0 0 0 0 0 0 0 0 0 0 0 0 0 0 0 0 0 0 0 0 0 0 0 0 0 0 0 0 0 0 0 0 0 0 0 0 0 0 0 0 0 0 0
0 0 0 0 0 0 0 0 0 0 0 0 0 0 0 0 0 0 0 0 0 0 0 0 0 0 0 0 0 0 0 0 0 0 0 0 0 0 0 0 0 0 0 0
0 0 0 0 0 0 0 0 0 0 0 0 0 0 0 0 0 0 0 0 0 0 0 0 0 0 0 0 0 0 0 0 0 0 0 0 0 0 0 0 0 0 0 0
0 0 0 0 0 0 0 0 0 0 0 0 0 0 0 0 0 0 0 0 0 0 0 0 0 0 0 0 0 0 0 0 0 0 0 0 0 0 0 0 0 0 0 0
0 0 0 0 0 0 0 0 0 0 0 0 0 0 0 0 0 0 0 0 0 0 0 0 0 0 0 0 0 0 0 0 0 0 0 0 0 0 0 0 0 0 0 0
0 0 0 0 0 0 0 0 0 0 0 0 0 0 0 0 0 0 0 0 0 0 0 0 0 0 0 0 0 0 0 0 0 0 0 0 0 0 0 0 0 0 0 0
0 0 0 0 0 0 0 0 0 0 0 0 0 0 0 0 0 0 0 0 0 0 0 0 0 0 0 0 0 0 0 0 0 0 0 0 0 0 0 0 0 0 0 0
0 0 0 0 0 0 0 0 0 0 0 0 0 0 0 0 0 0 0 0 0 0 0 0 0 0 0 0 0 0 0 0 0 0 0 0 0 0 0 0 0 0 0 0
0 0 0 0 0 0 0 0 0 0 0 0 0 0 0 0 0 0 0 0 0 0 0 0 0 0 0 0 0 0 0 0 0 0 0 0 0 0 0 0 0 0 0 0
0 0 0 0 0 0 0 0 0 0 0 0 0 0 0 0 0 0 0 0 0 0 0 0 0 0 0 0 0 0 0 0 0 0 0 0 0 0 0 0 0 0 0 0
0 0 0 0 0 0 0 0 0 0 0 0 0 0 0 0 0 0 0 0 0 0 0 0 0 0 0 0 0 0 0 0 0 0 0 0 0 0 0 0 0 0 0 0
0 0 0 0 0 0 0 0 0 0 0 0 0 0 0 0 0 0 0 0 0 0 0 0 0 0 0 0 0 0 0 0 0 0 0 0 0 0 0 0 0 0 0 0
0 0 0 0 0 0 0 0 0 0 0 0 0 0 0 0 0 0 0 0 0 0 0 0 0 0 0 0 0 0 0 0 0 0 0 0 0 0 0 0 0 0 0 0
Wind_Speed
9 6 5 8 11 12 14 12 11 12 13 19 16 12 8 6 9 12 13 13 13 11 9 8 7 6 5 5 5 6 7 8 9 9 9 10 10 11 11 12 12 12 13 13
5 3 5 9 13 14 16 14 16 18 21 17 10 4 5 8 11 14 15 15 13 12 10 9 8 6 5 5 5 6 7 8 8 9 9 10 10 11 11 11 12 12 12 13
4 2 6 11 10 14 11 13 12 13 11 4 5 7 8 9 13 15 15 15 14 13 11 9 8 6 5 5 5 6 7 8 8 8 9 10 10 10 11 11 12 12 12 12
5 5 7 2 3 8 9 11 15 15 15 11 10 7 7 9 13 14 14 14 14 12 10 9 7 6 4 4 5 6 7 8 8 8 9 10 10 10 11 11 11 11 11 12
3 5 11 5 6 8 8 11 13 18 18 11 1 5 8 11 13 13 13 13 12 11 10 9 8 6 5 5 6 7 7 7 8 8 9 10 10 11 11 10 11 11 11 11
4 4 8 3 5 5 3 9 8 12 12 6 5 5 3 7 11 11 11 11 11 11 10 9 8 7 6 6 6 7 7 7 8 8 9 10 10 11 10 10 10 10 10 11
7 7 12 2 8 8 5 5 5 10 10 10 11 7 2 7 10 11 12 12 12 11 10 9 8 7 7 7 7 6 6 8 8 8 9 9 10 9 10 9 10 10 11 10
7 8 12 9 12 13 10 1 5 7 9 11 12 6 5 8 11 13 13 13 13 11 10 8 8 8 8 7 6 5 6 8 8 8 7 7 9 9 9 9 10 10 10 10
13 11 2 13 13 10 3 6 7 7 9 10 10 10 10 10 12 13 14 13 12 11 10 8 9 9 8 6 4 5 6 7 7 8 7 7 8 9 8 8 7 8 9 9
9 15 11 13 16 16 13 14 11 9 8 10 12 11 12 11 12 14 14 14 12 12 11 10 10 10 8 6 5 5 7 7 7 7 7 7 6 6 6 7 7 8 9 9
11 12 11 13 17 19 17 15 15 13 11 13 13 13 14 13 14 14 13 13 12 12 11 11 10 10 8 7 6 6 6 6 6 6 7 7 6 6 7 7 8 10 9 9
14 11 10 11 6 7 11 14 15 13 13 13 14 14 14 13 13 14 14 13 13 13 12 11 10 9 8 8 7 6 5 5 4 5 5 5 7 7 6 8 12 12 12 12
18 8 10 13 9 7 10 12 11 13 14 13 14 14 14 12 12 13 14 15 16 15 13 11 10 10 9 8 8 7 6 5 4 4 5 5 6 7 8 8 9 9 11 13
17 9 11 13 14 12 12 10 8 10 11 11 11 13 13 12 13 15 16 16 15 14 13 12 11 10 9 9 8 7 6 6 5 4 4 5 5 5 6 8 9 7 8 11
18 17 18 15 12 8 7 7 9 11 12 12 12 13 15 16 16 16 15 14 14 13 13 12 12 11 10 10 9 8 6 4 4 4 4 4 5 5 5 7 7 8 8 8
12 12 16 19 22 18 13 14 15 16 14 15 15 16 17 16 14 14 14 16 16 17 15 14 13 11 11 11 9 7 6 7 6 4 4 4 4 4 5 6 6 7 7 8
11 14 16 18 22 21 19 19 19 17 14 16 17 16 15 14 14 14 15 16 15 14 14 14 13 11 11 11 10 7 5 5 7 5 4 4 4 4 4 5 6 6 6 8
20 22 20 18 18 19 17 17 17 16 15 15 14 15 18 19 19 18 16 15 13 12 13 13 12 12 12 12 9 7 6 5 5 4 4 4 4 4 4 5 6 7 7 7
22 23 24 23 22 18 15 14 14 14 14 14 17 20 20 19 17 16 16 16 17 17 15 14 18 14 12 13 12 7 7 6 5 5 4 5 4 4 4 4 5 6 6 7
19 19 21 20 16 13 13 11 10 12 14 16 17 17 18 18 16 16 17 17 16 12 12 16 16 13 13 13 15 8 8 7 6 5 5 4 4 4 4 4 5 5 6 6
16 15 15 15 15 14 14 13 12 13 13 16 19 19 18 16 17 17 17 15 14 12 14 20 14 12 12 12 16 9 8 8 7 6 5 5 4 4 4 4 4 5 5 6
12 12 14 14 14 14 10 9 10 12 13 16 17 15 15 16 18 17 17 11 13 19 14 12 12 15 16 17 11 10 9 9 7 6 6 5 4 4 4 4 4 4 5 5
13 12 12 11 12 11 8 8 11 12 15 16 18 19 19 16 15 15 14 11 11 21 16 12 16 22 24 15 10 10 10 10 8 7 6 6 5 4 4 4 4 4 4 5
12 12 10 8 6 7 9 9 9 10 11 12 13 15 15 13 12 12 7 17 21 22 14 16 24 26 24 11 10 10 10 9 9 8 7 6 5 5 4 4 4 4 4 6
11 9 8 7 8 9 8 6 6 8 10 9 11 13 12 11 10 11 10 15 22 22 13 18 26 26 18 11 11 11 10 9 9 8 7 7 6 5 5 4 4 4 4 5
9 9 8 8 8 7 6 5 6 7 8 9 9 10 10 9 8 10 10 13 19 20 14 12 16 19 14 12 12 11 10 10 10 9 8 7 7 6 5 5 5 4 4 4
9 8 7 8 8 7 7 7 8 8 9 9 9 9 11 10 10 11 13 12 13 14 12 11 12 13 13 12 12 11 10 9 9 8 8 7 6 6 6 6 4 4 4 4
Wind_Direction
267 274 253 252 235 207 215 232 248 259 268 282 299 303 286 236 198 191 191 192 194 197 198 202 210 222 239 262 279 290 296 301 306 310 312 312 314 317 318 319 320 321 321 323
264 223 227 256 243 227 230 239 249 266 276 276 292 283 244 214 197 198 198 197 197 198 199 203 209 218 232 256 276 287 290 294 301 305 309 311 314 316 317 318 320 320 321 323
266 222 277 263 224 194 204 215 216 236 255 266 254 248 246 222 205 206 201 196 195 196 198 200 203 210 228 252 272 279 283 289 295 300 305 309 312 312 315 318 318 318 320 321
289 310 255 258 111 185 215 234 221 243 262 264 267 285 263 230 212 207 199 194 193 191 191 191 191 199 219 246 263 271 278 284 291 300 304 308 310 312 315 315 315 315 316 318
240 276 278 263 185 185 210 267 225 231 252 262 291 284 251 216 209 204 194 189 185 183 180 178 184 191 209 239 255 266 276 287 298 302 303 307 309 313 314 313 311 312 313 315
197 234 254 241 142 156 176 271 220 210 235 210 178 258 282 168 188 190 180 174 169 167 171 179 183 187 212 239 253 265 280 292 297 299 300 304 307 310 311 310 307 310 310 312
211 238 264 208 136 153 208 272 177 199 212 184 202 227 109 154 174 175 171 167 165 167 177 182 177 187 217 238 252 269 284 290 293 296 300 302 304 307 309 309 307 309 311 313
184 211 253 158 153 197 229 207 188 204 206 205 217 203 173 175 173 170 169 169 171 174 180 176 178 193 220 238 252 268 279 285 292 298 301 298 305 308 311 312 311 314 316 317
199 220 278 173 206 226 258 235 223 213 213 209 213 208 194 187 182 179 177 174 177 181 179 180 188 201 222 235 244 263 276 286 295 300 299 301 307 312 315 316 314 316 317 319
245 260 253 228 241 250 243 245 248 229 214 200 208 206 194 187 184 182 182 179 179 182 187 191 195 204 220 227 235 256 274 287 296 301 304 309 310 310 313 313 315 316 321 323
247 265 283 258 235 243 248 247 248 239 224 213 210 206 195 189 187 185 183 181 182 188 194 196 193 201 209 215 224 247 267 281 291 296 303 309 312 311 310 306 310 317 321 322
243 237 230 265 242 222 230 237 233 227 224 216 209 207 195 193 187 184 182 180 185 193 198 196 193 198 200 203 213 235 258 275 286 295 303 308 313 312 305 304 316 321 323 324
250 259 250 269 270 232 235 241 230 218 217 212 208 203 195 190 183 182 183 185 190 194 196 194 193 197 196 195 205 223 243 264 277 283 295 305 310 315 319 321 321 323 330 333
245 255 268 257 254 247 237 237 227 221 220 212 201 195 191 185 181 186 191 192 191 190 192 193 195 199 191 189 200 217 233 248 261 274 286 293 300 305 309 317 323 327 332 335
237 225 239 257 266 254 225 214 218 223 215 209 198 192 189 188 190 194 192 184 184 189 193 193 199 199 184 186 198 210 222 235 247 263 274 284 292 297 302 309 313 318 323 333
236 228 240 252 258 257 238 225 229 232 216 206 199 199 197 195 192 187 183 180 183 193 194 194 201 195 180 185 194 204 215 228 245 257 265 275 284 295 304 310 314 317 324 332
231 241 238 245 253 253 242 233 232 233 216 206 204 196 188 188 189 188 188 189 193 195 192 194 196 184 180 185 190 198 204 213 227 242 252 265 277 289 300 305 310 315 319 325
235 244 246 245 252 252 245 235 230 225 216 208 194 186 188 191 194 191 186 183 189 196 199 195 187 179 182 184 188 193 197 204 211 226 240 252 269 281 291 298 306 313 318 324
241 245 249 249 249 248 244 236 227 219 207 192 189 194 197 199 194 184 176 178 187 199 200 190 187 181 184 188 184 189 194 201 208 218 229 247 259 268 282 295 305 312 317 322
248 248 251 254 254 247 245 244 231 219 205 194 193 195 198 197 188 179 179 190 198 196 177 178 183 184 186 188 186 187 192 199 206 211 218 231 247 263 278 291 302 309 314 319
253 255 255 257 257 252 246 242 229 219 202 194 197 200 197 189 183 179 183 198 201 184 173 178 181 182 183 183 187 186 190 196 202 207 213 222 235 250 267 282 294 303 309 315
270 269 265 263 264 264 252 231 219 212 199 199 201 196 188 185 185 190 198 199 176 176 175 179 181 183 181 181 183 184 189 194 199 202 208 215 225 238 253 271 284 295 303 308
289 283 278 272 267 267 256 225 211 207 205 204 200 195 192 188 184 185 195 195 171 177 177 182 183 183 181 179 181 184 188 193 197 200 204 209 217 228 242 258 271 285 295 302
295 292 284 280 275 264 254 243 221 215 210 206 205 200 191 184 191 201 190 174 177 178 181 185 184 183 180 179 180 184 188 192 195 197 200 203 209 217 229 244 259 272 283 294
290 287 285 279 271 267 264 252 228 218 210 209 205 199 199 196 187 185 178 173 177 176 179 186 186 185 181 180 181 184 187 190 191 191 195 199 204 210 219 230 244 261 275 285
279 282 280 267 264 270 267 243 231 220 211 211 203 194 196 196 182 171 173 175 176 178 175 176 182 185 185 182 184 185 185 189 194 195 195 197 202 205 212 221 236 248 264 277
270 270 269 271 264 252 244 234 232 225 212 210 207 193 188 187 182 174 173 173 173 176 174 175 178 182 182 182 183 183 182 184 187 189 189 193 196 201 205 212 225 238 254 268